Starlink 33904

operational
NORAD ID: 63887 Int'l Des: 2025-094 Owner: SPXS Country: US Constellation: starlink
LEOCIRCULAR

About Starlink 33904

Description loading...

Live Position

Loading 3D Globe...

Upcoming Passes

Altitude History

Altitude vs Time

uPlot chart will show altitude changes over time

Two-Line Element Set

1 63887U 25094Z 26061.25716275 .00001703 00000-0 15040-3 0 9996
2 63887 69.9987 253.0416 0003017 269.7446 90.3368 14.98342627 46096
Epoch: Mar 2, 2026 • Age: 43 hours

Current Status

Altitude 595.4 km
Velocity 7.56 km/s
Sub-Earth Point -70.02°S, 73.28°E
Launch Date May 10, 2025
Age 0.8 years
Type internet

Technical Details

Classification Payload
Mass 575.00 kg
Dry Mass 530.00 kg
Total Mass 575.00 kg
Length 0.30 m
Diameter 4.10 m
Span 29.00 m
Shape Box + pan
Manufacturer SPXS
Bus Type Starlink V2MO
Phase Status In Orbit
Owner/State SPXS/US

Large Constellations

Loading constellations...